Location: Allens Landing
(37.8284°N, 89.7284°W)
Time: 19:40:03
(UTC+00:00)

Altair - Visible Passes

Search period start: 13 November 2024 00:00
Search period end: 23 November 2024 00:00
Orbit: 1501 x 1682 km, 47.2° (Epoch: 12 November)

Date Brightness Start Highest point End Pass type
(mag) Time Alt. Az. Time Alt. Az. Time Alt. Az.
13 Nov 9.8 01:32:34 10° W 01:36:16 13° WSW 01:40:02 10° SSW visible
13 Nov 8.2 22:58:52 10° WNW 23:07:52 60° SW 23:17:06 10° SE visible
14 Nov 9.8 01:06:32 10° W 01:11:12 15° WSW 01:15:56 10° SSW visible
15 Nov 9.8 00:40:43 10° W 00:46:06 17° SW 00:51:36 10° SSW visible
16 Nov 9.8 00:15:02 10° W 00:21:01 19° SW 00:27:07 10° SSW visible
16 Nov 9.8 23:49:27 10° W 23:55:56 22° SW 00:02:32 10° S visible
17 Nov 9.8 23:23:57 10° WNW 23:30:50 24° SW 23:37:52 10° S visible
18 Nov 9.8 22:58:29 10° WNW 23:05:44 27° SW 23:13:07 10° S visible
19 Nov 9.9 12:09:32 10° S 12:16:23 22° SE 12:23:04 10° E visible
20 Nov 9.9 11:44:55 10° SSE 11:51:17 20° SE 11:57:31 10° E visible
21 Nov 9.9 11:20:23 10° SSE 11:26:11 18° SE 11:31:52 10° E visible
22 Nov 10.0 10:55:59 10° SSE 11:01:05 16° SE 11:06:05 10° E visible
